Find Yaogan 33-01

NORAD ID: 47302 Int'l Des: 2020-103 Owner: ZLZB Country: CN Constellation: yaogan operational
LEOCIRCULARRETROGRADESSO

Live Position

Loading 3D Globe...

About Yaogan 33-01

Description loading...

Upcoming Passes

Passes for default location (London). Set your location on the main map for personalized predictions.

Altitude History

Loading altitude history...

Two-Line Element Set

1 47302U 20103A 26107.25374286 .00000270 00000-0 67153-4 0 9990
2 47302 98.0497 350.7499 0002798 352.9990 7.1170 14.58829950282420
Epoch: Apr 17, 2026 • Age: 9 hours

Current Status

Altitude 709.2 km
Velocity 7.51 km/s
Sub-Earth Point 72.60°N, 101.23°W
Launch Date Dec 27, 2020
Age 5.3 years
Type military

Technical Details

Classification Payload
Mass 1040.00 kg
Dry Mass 1040.00 kg
Total Mass 1040.00 kg
Length 1.50 m
Diameter 1.50 m
Span 5.00 m
Shape Box + 2 Pan
Manufacturer SAST
Bus Type JB-9
Phase Status In Orbit
Owner/State ZLZB/CN

Most Searched